User: anonymous   Login
Location: Unspecified
(0.0000°N, 0.0000°E)
Time: 17:01:46
(UTC+00:00)
Language:

PRISMA (TANGO) - Orbit

View from above orbital plane
View from above orbital plane
View from above satellite
View from above satellite

Ground track
Ground track

The orbit data is extracted from the following two-line orbital elements,

1 36827U 10028F   18174.56313914 +.00000064 +00000-0 +32575-4 0  9996
2 36827 098.4978 345.6623 0042744 005.0209 355.1400 14.42344228282384
Epoch (UTC): 23 June 2018 13:30:55
Eccentricity: 0.0042744
inclination: 98.4978°
perigee height: 720 km
apogee height: 781 km
right ascension of ascending node: 345.6623°
argument of perigee: 5.0209°
revolutions per day: 14.42344228
mean anomaly at epoch: 355.1400°
orbit number at epoch: 28238

The dashed part of the orbit path shows where the satellite is in the earth's shadow,  

DLR